Weslaco, TX

7:39 PM CDT on March 28, 2017 (GMT -0500)
Weslaco

Weather History for KT65 - February, 2014

Change the Weather History Date:

Friday, February 28, 2014

  Actual Average (KMFE) Record (KMFE)
Temperature  
Mean Temperature 66 °F -  
Max Temperature 85 °F 74 °F 96 °F (2017)
Min Temperature 48 °F 55 °F 39 °F (1962)
Cooling Degree Days 2    
Growing Degree Days 16 (Base 50)    
Moisture  
Dew Point 56 °F    
Average Humidity 73    
Maximum Humidity 91    
Minimum Humidity 46    
Precipitation  
Precipitation 0.00 in - - ()
Sea Level Pressure  
Sea Level Pressure 29.88 in    
Wind  
Wind Speed 10 mph (SSE)    
Max Wind Speed 25 mph    
Max Gust Speed 34 mph    
Visibility 9 miles    
Events      
Averages and records for this station are not official NWS values.
T = Trace of Precipitation, MM = Missing Value Source: NWS Daily Summary

Daily Weather History Graph

Daily Weather History Graph

Search for Another Location

Airport or City:

Trip Planner

Search our weather history database for the weather conditions in past years. The results will help you decide how hot, cold, wet, or windy it might be!

Date:

Astronomy

Feb. 28, 2014 Rise Set
Actual Time 6:56 AM CST 6:32 PM CST
Civil Twilight 6:33 AM CST 6:56 PM CST
Nautical Twilight 6:06 AM CST 7:22 PM CST
Astronomical Twilight 5:39 AM CST 7:49 PM CST
Moon 6:10 AM CST (2/28) 6:09 PM CST (2/28)
Length of Visible Light 12h 23m
Length of Day
11h 36m
Waning Crescent, 1% of the Moon is Illuminated
Feb 28
Waning Crescent
Mar 1
New
Mar 8
First Quarter
Mar 16
Full
Mar 23
Last Quarter

Hourly Weather History & Observations

Time (CST) Temp. Heat Index Dew Point Humidity Pressure Visibility Wind Dir Wind Speed Gust Speed Precip Events Conditions
12:15 AM 49.8 °F - 44.6 °F 82% 29.97 in 10.0 mi SE 3.5 mph - N/A   Clear
12:35 AM 49.3 °F - 44.1 °F 82% 29.96 in 10.0 mi Calm Calm - N/A   Clear
12:55 AM 48.7 °F - 44.6 °F 86% 29.95 in 10.0 mi South 4.6 mph - N/A   Clear
1:15 AM 49.1 °F - 45.0 °F 86% 29.94 in 10.0 mi South 4.6 mph - N/A   Clear
1:35 AM 50.2 °F - 46.2 °F 86% 29.93 in 10.0 mi South 5.8 mph - N/A   Clear
1:55 AM 50.0 °F - 45.9 °F 86% 29.92 in 10.0 mi South 3.5 mph - N/A   Clear
2:15 AM 50.0 °F - 46.4 °F 87% 29.92 in 10.0 mi South 4.6 mph - N/A   Clear
2:35 AM 50.5 °F - 47.1 °F 88% 29.91 in 10.0 mi SSE 3.5 mph - N/A   Clear
2:55 AM 50.7 °F - 47.3 °F 88% 29.91 in 10.0 mi South 4.6 mph - N/A   Clear
3:15 AM 50.5 °F - 47.3 °F 89% 29.90 in 10.0 mi SSE 4.6 mph - N/A   Clear
3:35 AM 50.4 °F - 47.3 °F 89% 29.89 in 10.0 mi SSE 4.6 mph - N/A   Clear
3:55 AM 50.7 °F - 47.7 °F 89% 29.90 in 10.0 mi Calm Calm - N/A   Clear
4:15 AM 50.4 °F - 47.5 °F 90% 29.89 in 10.0 mi ESE 3.5 mph - N/A   Clear
4:35 AM 49.6 °F - 46.6 °F 89% 29.88 in 10.0 mi SE 3.5 mph - N/A   Clear
4:55 AM 49.5 °F - 46.9 °F 91% 29.88 in 7.0 mi SSE 4.6 mph - N/A   Clear
5:15 AM 50.0 °F - 47.3 °F 90% 29.88 in 7.0 mi SE 3.5 mph - N/A   Clear
5:35 AM 50.0 °F - 47.5 °F 91% 29.88 in 7.0 mi SSE 4.6 mph - N/A   Scattered Clouds
5:55 AM 51.1 °F - 48.4 °F 90% 29.88 in 10.0 mi SSE 9.2 mph - N/A   Mostly Cloudy
6:20 AM 51.3 °F - 48.4 °F 90% 29.88 in 10.0 mi South 6.9 mph - N/A   Mostly Cloudy
6:35 AM 51.3 °F - 48.2 °F 89% 29.88 in 10.0 mi South 8.1 mph - N/A   Scattered Clouds
6:55 AM 51.4 °F - 48.6 °F 90% 29.88 in 10.0 mi SSE 9.2 mph - N/A   Clear
7:15 AM 52.2 °F - 49.1 °F 89% 29.88 in 10.0 mi South 10.4 mph - N/A   Clear
7:35 AM 53.8 °F - 50.0 °F 87% 29.88 in 10.0 mi South 11.5 mph 17.3 mph N/A   Clear
7:55 AM 55.4 °F - 51.4 °F 87% 29.87 in 7.0 mi South 17.3 mph - N/A   Clear
8:15 AM 58.3 °F - 53.8 °F 85% 29.89 in 7.0 mi South 11.5 mph 24.2 mph N/A   Clear
8:35 AM 60.4 °F - 54.5 °F 81% 29.89 in 10.0 mi South 18.4 mph 23.0 mph N/A   Clear
8:55 AM 63.0 °F - 55.6 °F 77% 29.90 in 10.0 mi South 16.1 mph 21.9 mph N/A   Clear
9:15 AM 65.7 °F - 56.3 °F 72% 29.90 in 10.0 mi South 20.7 mph 25.3 mph N/A   Clear
9:35 AM 68.0 °F - 57.4 °F 69% 29.91 in 7.0 mi South 17.3 mph 28.8 mph N/A   Clear
9:55 AM 70.0 °F - 58.1 °F 66% 29.91 in 7.0 mi South 23.0 mph 33.4 mph N/A   Clear
10:15 AM 71.6 °F - 58.6 °F 64% 29.91 in 7.0 mi South 24.2 mph 34.5 mph N/A   Clear
10:35 AM 73.0 °F - 59.2 °F 62% 29.91 in 7.0 mi South 25.3 mph 29.9 mph N/A   Clear
10:55 AM 74.5 °F - 59.4 °F 59% 29.91 in 7.0 mi South 20.7 mph 34.5 mph N/A   Clear
11:15 AM 75.7 °F - 59.7 °F 57% 29.91 in 7.0 mi SSW 25.3 mph 34.5 mph N/A   Clear
11:35 AM 77.2 °F - 60.1 °F 55% 29.90 in 10.0 mi South 23.0 mph 31.1 mph N/A   Clear
11:55 AM 78.1 °F - 59.9 °F 53% 29.89 in 10.0 mi South 20.7 mph 29.9 mph N/A   Clear
12:15 PM 80.1 °F 81.1 °F 61.0 °F 52% 29.88 in 10.0 mi South 20.7 mph 31.1 mph N/A   Clear
12:35 PM 81.5 °F 82.1 °F 60.8 °F 49% 29.87 in 7.0 mi South 21.9 mph 27.6 mph N/A   Clear
12:55 PM 82.2 °F 82.6 °F 60.3 °F 47% 29.85 in 10.0 mi South 23.0 mph 28.8 mph N/A   Clear
1:15 PM 82.6 °F 82.9 °F 60.3 °F 47% 29.85 in 10.0 mi South 17.3 mph 23.0 mph N/A   Clear
1:35 PM 83.3 °F 83.5 °F 60.8 °F 46% 29.83 in 10.0 mi South 17.3 mph 24.2 mph N/A   Clear
1:55 PM 83.5 °F 83.7 °F 61.0 °F 46% 29.83 in 10.0 mi South 16.1 mph 24.2 mph N/A   Clear
2:15 PM 84.2 °F 84.6 °F 61.3 °F 46% 29.83 in 10.0 mi South 15.0 mph 23.0 mph N/A   Clear
2:35 PM 84.6 °F 85.0 °F 61.9 °F 46% 29.82 in 7.0 mi South 12.7 mph 20.7 mph N/A   Clear
2:55 PM 84.9 °F 85.4 °F 62.1 °F 46% 29.81 in 7.0 mi South 10.4 mph 20.7 mph N/A   Clear
3:15 PM 85.3 °F 85.9 °F 62.6 °F 46% 29.81 in 10.0 mi South 17.3 mph - N/A   Clear
3:35 PM 84.4 °F 85.4 °F 63.1 °F 49% 29.80 in 7.0 mi SSE 17.3 mph 24.2 mph N/A   Clear
3:55 PM 83.5 °F 84.5 °F 62.8 °F 50% 29.80 in 7.0 mi SSE 15.0 mph 21.9 mph N/A   Clear
4:15 PM 83.3 °F 84.3 °F 63.1 °F 50% 29.80 in 10.0 mi SSE 16.1 mph 20.7 mph N/A   Clear
4:35 PM 82.4 °F 83.4 °F 62.8 °F 51% 29.80 in 10.0 mi SSE 17.3 mph 21.9 mph N/A   Clear
4:55 PM 81.7 °F 82.9 °F 63.0 °F 53% 29.80 in 10.0 mi SSE 16.1 mph 21.9 mph N/A   Clear
5:15 PM 80.1 °F 81.4 °F 62.8 °F 55% 29.80 in 10.0 mi SSE 17.3 mph 23.0 mph N/A   Clear
5:35 PM 79.0 °F - 62.8 °F 57% 29.81 in 7.0 mi SSE 12.7 mph 21.9 mph N/A   Clear
5:55 PM 77.0 °F - 62.8 °F 61% 29.81 in 10.0 mi SE 15.0 mph 24.2 mph N/A   Clear
6:15 PM 75.4 °F - 62.8 °F 65% 29.81 in 10.0 mi SSE 17.3 mph 24.2 mph N/A   Clear
6:35 PM 73.8 °F - 62.6 °F 68% 29.82 in 10.0 mi SSE 12.7 mph 21.9 mph N/A   Clear
6:55 PM 72.5 °F - 62.6 °F 71% 29.83 in 10.0 mi SSE 15.0 mph 23.0 mph N/A   Clear
7:20 PM 71.6 °F - 62.6 °F 73% 29.84 in 10.0 mi SSE 12.7 mph 23.0 mph N/A   Clear
7:35 PM 70.9 °F - 62.8 °F 75% 29.85 in 10.0 mi SSE 11.5 mph 16.1 mph N/A   Clear
7:55 PM 70.2 °F - 63.0 °F 78% 29.86 in 10.0 mi SSE 11.5 mph 18.4 mph N/A   Clear
8:15 PM 69.4 °F - 63.0 °F 80% 29.87 in 10.0 mi SSE 12.7 mph - N/A   Clear
8:35 PM 68.9 °F - 62.8 °F 81% 29.88 in 10.0 mi SSE 13.8 mph - N/A   Clear
8:55 PM 68.5 °F - 62.6 °F 81% 29.89 in 10.0 mi South 10.4 mph - N/A   Clear
9:15 PM 68.2 °F - 62.6 °F 82% 29.89 in 10.0 mi SSE 10.4 mph - N/A   Clear
9:35 PM 68.0 °F - 62.6 °F 83% 29.90 in 10.0 mi SSE 9.2 mph - N/A   Clear
9:55 PM 67.6 °F - 62.2 °F 83% 29.90 in 10.0 mi SSE 9.2 mph - N/A   Clear
10:15 PM 67.3 °F - 62.2 °F 84% 29.90 in 10.0 mi SSE 11.5 mph - N/A   Clear
10:35 PM 67.1 °F - 62.1 °F 84% 29.90 in 10.0 mi SSE 10.4 mph - N/A   Clear
10:55 PM 67.1 °F - 61.9 °F 83% 29.90 in 10.0 mi SSE 12.7 mph 17.3 mph N/A   Clear
11:15 PM 67.1 °F - 61.9 °F 83% 29.91 in 10.0 mi SSE 10.4 mph - N/A   Clear
11:35 PM 67.1 °F - 61.7 °F 83% 29.91 in 10.0 mi SSE 11.5 mph 16.1 mph N/A   Clear
11:55 PM 66.9 °F - 61.7 °F 83% 29.91 in 10.0 mi SSE 10.4 mph - N/A   Clear